Regional Weather Roundup
Issued by NWS

Home | Current Version | Previous Version | Graphics & Text | Print | Product List | Glossary On
Versions: 1 2 3 4 5 6 7 8 9 10 11 12 13 14 15 16 17 18 19 20 21 22 23 24 25 26 27 28 29 30 31 32 33 34 35 36 37 38 39 40 41 42 43 44 45 46 47 48 49 50
000
ASUS43 KDMX 251901
RWRIA

WEATHER ROUNDUP FOR IOWA
NATIONAL WEATHER SERVICE DES MOINES IA
200 PM CDT THU MAY 25 2017

NOTE: "FAIR" INDICATES FEW OR NO CLOUDS BELOW 12,000 FEET WITH NO
SIGNIFICANT WEATHER AND/OR OBSTRUCTIONS TO VISIBILITY.

* - THESE STATIONS ARE NOT NWS STATIONS...THUS NOT UNDER NWS
QUALITY CONTROL.  THEY ALSO DO NOT REPORT WEATHER SUCH
AS PRECIPITATION OR FOG.

IAZ001>003-012>014-020>022-031>034-043>046-252000-
   NORTHWEST IOWA

CITY           SKY/WX    TMP DP  RH WIND       PRES   REMARKS
CARROLL *      SUNNY     73  50  43 S18G26    29.61F
CHEROKEE *     SUNNY     71  49  45 S17G28    29.58F
DENISON *      SUNNY     72  48  43 S18G28    29.60F
LE MARS *      SUNNY     72  50  46 S21G29    29.57S
ORANGE CITY *  SUNNY     70  48  46 S22       29.57S
SHELDON *      SUNNY     70  48  46 S21G32    29.56R
SIOUX CITY     PTSUNNY   72  52  49 S17G32    29.57S
SPENCER        SUNNY     71  49  45 S20G31    29.59F
STORM LAKE *   SUNNY     72  46  40 S24G33    29.60F
$$

IAZ055>058-069>071-079>083-090>094-252000-
   SOUTHWEST IOWA

CITY           SKY/WX    TMP DP  RH WIND       PRES   REMARKS
ATLANTIC *     SUNNY     72  48  43 S15G25    29.62F
AUDUBON *      SUNNY     70  52  52 SE14G21   29.63F
CLARINDA *     SUNNY     73  52  46 S13G21    29.65F
COUNCIL BLFS * SUNNY     72  52  49 S18G25    29.59F
CRESTON *      SUNNY     70  50  49 S13G20    29.67F
HARLAN  *      SUNNY     72  46  40 S20G30    29.63F
LAMONI         SUNNY     69  50  50 SE8       29.67F
RED OAK *      SUNNY     73  50  43 S15       29.62F
SHENANDOAH *   SUNNY     73  48  40 S18G24    29.62F
$$

IAZ047>049-059>061-072>074-084-252000-
   CENTRAL IOWA

CITY           SKY/WX    TMP DP  RH WIND       PRES   REMARKS
AMES           SUNNY     69  52  54 S12       29.67S
ANKENY *       SUNNY     70  50  49 S7        29.67F
BOONE *        CLOUDY    66  52  59 SE13      29.65F
CHARITON *     SUNNY     68  50  52 S13G18    29.67F
DES MOINES     MOSUNNY   71  50  47 S12       29.66F
GRINNELL*      SUNNY     67  47  47 CALM      29.69F
KNOXVILLE *    SUNNY     70  45  40 VRB6G14   29.66F
MARSHALLTOWN   SUNNY     68  48  48 VRB3      29.67F
NEWTON *       SUNNY     68  45  42 VRB6G13   29.66F
PERRY *          N/A     70  44  40 S14G20    29.65F
$$

IAZ004>006-015-016-023>025-035-036-252000-
   NORTH CENTRAL IOWA

CITY           SKY/WX    TMP DP  RH WIND       PRES   REMARKS
ALGONA *       SUNNY     68  52  56 S15G22    29.64F
CLARION *      CLOUDY    70  48  46 S14       29.65F
ESTHERVILLE    SUNNY     67  51  56 SE22G28   29.61F
FORT DODGE *   MOSUNNY   70  52  52 S14G22    29.65F
MASON CITY     MOSUNNY   65  48  54 S9        29.69R
FOREST CITY *    N/A     68  41  37 S12       29.65F
WEBSTER CITY * MOSUNNY   68  48  49 S15       29.63F
$$

IAZ007>011-017>019-026>030-037>042-050>054-066-252000-
   NORTHEAST IOWA

CITY           SKY/WX    TMP DP  RH WIND       PRES   REMARKS
CEDAR RAPIDS   SUNNY     68  53  58 CALM      29.68F
CHARLES CITY * MOSUNNY   66  52  59 S8        29.68F
CLINTON *      CLOUDY    64  56  75 N5        29.70S
DUBUQUE        SUNNY     64  54  69 N5        29.70S
MONTICELLO *   SUNNY     68  52  56 CALM      29.68F
OELWEIN *      SUNNY     64  52  63 VRB3      29.69S
WATERLOO       MOSUNNY   68  49  50 VRB5      29.67F
$$

IAZ064-065-067-068-078-252000-
   EAST CENTRAL IOWA

CITY           SKY/WX    TMP DP  RH WIND       PRES   REMARKS
DAVENPORT      PTSUNNY   67  54  63 NW8       29.70R
IOWA CITY      MOSUNNY   69  52  54 CALM      29.70F
MT. PLEASANT * MOSUNNY   69  52  54 SW5       29.70F
MUSCATINE *    MOSUNNY   70  50  49 VRB3      29.69F
QUAD CITIES    PTSUNNY   70  54  56 VRB3      29.68F
$$

IAZ062-063-075>077-085>089-095>099-252000-
   SOUTHEAST IOWA

CITY           SKY/WX    TMP DP  RH WIND       PRES   REMARKS
BURLINGTON     MOSUNNY   70  54  56 MISG      29.69F
FAIRFIELD *    MOSUNNY   68  48  49 VRB6      29.68F
FORT MADISON * MOSUNNY   70  54  56 SW5       29.70F
KEOKUK *       MOSUNNY   70  54  56 W6        29.69F
OSKALOOSA *      N/A     69  47  45 S5        29.69F
OTTUMWA        MOSUNNY   70  50  49 SE6       29.68F
WASHINGTON *   MOSUNNY   70  52  52 W7        29.70F
$$

ABBREVIATIONS USED IN REMARKS
   TC - TEMPERATURES IN CELSIUS
  WCI - WIND CHILL INDEX
   HX - HEAT INDEX
  VSB - VISIBILITY
$$





USA.gov is the U.S. government's official web portal to all federal, state and local government web resources and services.